User: anonymous
Location: Unspecified
(0.0000°N, 0.0000°E)
Time: 01:26:13
(UTC+02:00)
Language:

Cosmos 1538 Rocket - Orbit

View from above orbital plane
View from above orbital plane
View from above satellite
View from above satellite

Ground track
Ground track

The orbit data is extracted from the following two-line orbital elements,

1 14760U 84019B   14243.45110443  .00000126  00000-0  52742-4 0  3960
2 14760 074.0450 194.0099 0029113 303.4923 195.5912 14.35525913597092
Epoch (UTC): 31 August 2014 10:49:35
Eccentricity: 0.0029113
inclination: 74.0450°
perigee height: 752 km
apogee height: 794 km
right ascension of ascending node: 194.0099°
argument of perigee: 303.4923°
revolutions per day: 14.35525913
mean anomaly at epoch: 195.5912°
orbit number at epoch: 59709

The dashed part of the orbit path shows where the satellite is in the earth's shadow,  

DLR